Change the Weather History Date:

Thursday, October 23, 2014

  Actual Average Record
Temperature  
Mean Temperature 48 °F -  
Max Temperature 51 °F 55 °F 71 °F (1984)
Min Temperature 46 °F 36 °F 24 °F (1997)
Degree Days  
Heating Degree Days 16    
Moisture  
Dew Point 44 °F    
Average Humidity 84    
Maximum Humidity 87    
Minimum Humidity 76    
Precipitation  
Precipitation 0.78 in - - ()
Sea Level Pressure  
Sea Level Pressure 29.79 in    
Wind  
Wind Speed 14 mph (NE)    
Max Wind Speed 20 mph    
Max Gust Speed 31 mph    
Visibility 9 miles    
Events      
Averages and records for this station are not official NWS values.
T = Trace of Precipitation, MM = Missing Value Source: NWS Daily Summary

Daily Weather History Graph

Daily Weather History Graph

Search for Another Location

Airport or City:

Trip Planner

Search our weather history database for the weather conditions in past years. The results will help you decide how hot, cold, wet, or windy it might be!

Date:

Astronomy

Oct. 23, 2014 Rise Set
Actual Time 7:09 AM EDT 5:49 PM EDT
Civil Twilight 6:40 AM EDT 6:18 PM EDT
Nautical Twilight 6:06 AM EDT 6:52 PM EDT
Astronomical Twilight 5:33 AM EDT 7:25 PM EDT
Moon 6:45 AM EDT (10/23) 5:49 PM EDT (10/23)
Length of Visible Light 11h 38m
Length of Day
10h 39m
Waning Crescent, 0% of the Moon is Illuminated
Oct 23
Waning Crescent
Oct 23
New
Oct 30
First Quarter
Nov 6
Full
Nov 14
Last Quarter

Hourly Weather History & Observations

Time (EDT) Temp. Windchill Dew Point Humidity Pressure Visibility Wind Dir Wind Speed Gust Speed Precip Events Conditions
12:15 AM 46.4 °F 39.5 °F 42.8 °F 87% 29.95 in 10.0 mi NE 17.3 mph 23.0 mph N/A   Overcast
12:35 AM 46.4 °F 39.5 °F 42.8 °F 87% 29.94 in 10.0 mi ENE 17.3 mph 29.9 mph N/A   Overcast
12:55 AM 46.4 °F 39.2 °F 42.8 °F 87% 29.93 in 8.0 mi NE 18.4 mph 25.3 mph 0.01 in   Overcast
1:15 AM 46.4 °F 40.1 °F 42.8 °F 87% 29.92 in 10.0 mi NE 15.0 mph 23.0 mph N/A   Overcast
1:35 AM 46.4 °F 39.2 °F 42.8 °F 87% 29.90 in 9.0 mi NE 18.4 mph 25.3 mph 0.04 in   Overcast
1:55 AM 46.4 °F 39.5 °F 42.8 °F 87% 29.89 in 10.0 mi ENE 17.3 mph 26.5 mph 0.06 in   Overcast
2:15 AM 46.4 °F 39.5 °F 42.8 °F 87% 29.88 in 10.0 mi NE 17.3 mph 23.0 mph 0.01 in   Overcast
2:35 AM 46.4 °F 40.4 °F 42.8 °F 87% 29.88 in 8.0 mi ENE 13.8 mph 20.7 mph 0.01 in   Overcast
2:55 AM 46.4 °F 40.1 °F 42.8 °F 87% 29.88 in 6.0 mi NE 15.0 mph 23.0 mph 0.02 in   Overcast
3:15 AM 46.4 °F 40.1 °F 42.8 °F 87% 29.88 in 10.0 mi NE 15.0 mph 21.9 mph 0.01 in   Overcast
3:35 AM 46.4 °F 39.5 °F 42.8 °F 87% 29.86 in 9.0 mi NE 17.3 mph 23.0 mph 0.01 in   Overcast
3:55 AM 46.4 °F 40.4 °F 42.8 °F 87% 29.85 in 10.0 mi NE 13.8 mph 21.9 mph 0.01 in   Overcast
4:15 AM 46.4 °F 39.8 °F 42.8 °F 87% 29.85 in 10.0 mi ENE 16.1 mph 25.3 mph N/A   Overcast
4:35 AM 46.4 °F 40.1 °F 42.8 °F 87% 29.84 in 10.0 mi NE 15.0 mph 25.3 mph N/A   Overcast
4:55 AM 48.2 °F - 42.8 °F 82% 29.84 in 10.0 mi ENE 18.4 mph 28.8 mph N/A   Overcast
5:15 AM 48.2 °F - 42.8 °F 82% 29.84 in 10.0 mi NE 15.0 mph 25.3 mph N/A   Overcast
5:35 AM 48.2 °F - 42.8 °F 82% 29.84 in 7.0 mi ENE 16.1 mph 31.1 mph 0.02 in   Overcast
5:55 AM 48.2 °F - 42.8 °F 82% 29.83 in 7.0 mi ENE 16.1 mph 23.0 mph 0.09 in   Overcast
6:15 AM 48.2 °F - 44.6 °F 87% 29.82 in 10.0 mi ENE 15.0 mph 21.9 mph N/A   Overcast
6:35 AM 48.2 °F - 42.8 °F 82% 29.81 in 10.0 mi NE 19.6 mph 26.5 mph 0.01 in   Overcast
6:55 AM 48.2 °F - 42.8 °F 82% 29.81 in 7.0 mi NE 17.3 mph 26.5 mph 0.04 in   Overcast
7:15 AM 48.2 °F - 44.6 °F 87% 29.81 in 9.0 mi NE 13.8 mph 20.7 mph 0.01 in   Overcast
7:35 AM 48.2 °F - 44.6 °F 87% 29.80 in 9.0 mi NE 13.8 mph 20.7 mph 0.01 in   Overcast
7:55 AM 48.2 °F - 44.6 °F 87% 29.79 in 10.0 mi NE 12.7 mph 23.0 mph 0.01 in   Overcast
8:15 AM 48.2 °F - 44.6 °F 87% 29.79 in 10.0 mi NE 16.1 mph 26.5 mph N/A   Overcast
8:35 AM 48.2 °F - 44.6 °F 87% 29.79 in 4.0 mi NE 11.5 mph 19.6 mph N/A   Overcast
8:55 AM 48.2 °F - 44.6 °F 87% 29.78 in 10.0 mi NE 11.5 mph 17.3 mph N/A   Overcast
9:15 AM 48.2 °F - 44.6 °F 87% 29.79 in 5.0 mi NE 12.7 mph 27.6 mph 0.03 in   Overcast
9:35 AM 48.2 °F - 44.6 °F 87% 29.78 in 10.0 mi NE 8.1 mph 26.5 mph 0.03 in   Overcast
9:55 AM 48.2 °F - 44.6 °F 87% 29.77 in 3.0 mi NE 18.4 mph 25.3 mph 0.09 in   Overcast
10:15 AM 48.2 °F - 44.6 °F 87% 29.78 in 8.0 mi ENE 12.7 mph 21.9 mph 0.06 in   Overcast
10:35 AM 48.2 °F - 44.6 °F 87% 29.78 in 9.0 mi NE 15.0 mph 24.2 mph 0.07 in   Overcast
10:55 AM 48.2 °F - 44.6 °F 87% 29.78 in 7.0 mi NE 16.1 mph 21.9 mph 0.09 in   Overcast
11:15 AM 48.2 °F - 44.6 °F 87% 29.78 in 10.0 mi ENE 15.0 mph 19.6 mph N/A   Overcast
11:35 AM 48.2 °F - 44.6 °F 87% 29.78 in 8.0 mi NE 13.8 mph 20.7 mph 0.02 in   Overcast
11:55 AM 48.2 °F - 44.6 °F 87% 29.79 in 7.0 mi ENE 12.7 mph 23.0 mph 0.04 in   Overcast
12:15 PM 48.2 °F - 44.6 °F 87% 29.78 in 7.0 mi NE 13.8 mph 21.9 mph 0.02 in   Overcast
12:35 PM 48.2 °F - 44.6 °F 87% 29.77 in 7.0 mi NE 15.0 mph 26.5 mph 0.06 in   Overcast
12:55 PM 48.2 °F - 44.6 °F 87% 29.77 in 9.0 mi NE 16.1 mph 26.5 mph 0.11 in   Overcast
1:15 PM 48.2 °F - 44.6 °F 87% 29.76 in 10.0 mi NE 11.5 mph 23.0 mph 0.03 in   Overcast
1:35 PM 48.2 °F - 44.6 °F 87% 29.74 in 10.0 mi ENE 17.3 mph 23.0 mph 0.03 in   Overcast
1:55 PM 50.0 °F - 44.6 °F 82% 29.74 in 10.0 mi NE 12.7 mph 20.7 mph 0.03 in   Overcast
2:15 PM 50.0 °F - 44.6 °F 82% 29.74 in 9.0 mi NE 16.1 mph 24.2 mph 0.03 in   Overcast
2:35 PM 50.0 °F - 44.6 °F 82% 29.75 in 10.0 mi NE 9.2 mph 25.3 mph 0.03 in   Overcast
2:55 PM 50.0 °F - 44.6 °F 82% 29.75 in 10.0 mi NE 10.4 mph 17.3 mph 0.03 in   Overcast
3:15 PM 50.0 °F - 44.6 °F 82% 29.75 in 10.0 mi ENE 10.4 mph 19.6 mph N/A   Overcast
3:35 PM 50.0 °F - 44.6 °F 82% 29.74 in 9.0 mi NE 15.0 mph 19.6 mph N/A   Overcast
3:55 PM 50.0 °F - 44.6 °F 82% 29.73 in 9.0 mi NE 15.0 mph 20.7 mph N/A   Overcast
4:15 PM 50.0 °F - 44.6 °F 82% 29.73 in 10.0 mi ENE 12.7 mph 17.3 mph 0.02 in   Overcast
4:35 PM 48.2 °F - 44.6 °F 87% 29.74 in 7.0 mi ENE 12.7 mph 19.6 mph 0.07 in   Overcast
4:55 PM 48.2 °F - 44.6 °F 87% 29.74 in 10.0 mi NE 9.2 mph 21.9 mph 0.08 in   Overcast
5:15 PM 50.0 °F - 44.6 °F 82% 29.74 in 10.0 mi NE 10.4 mph 20.7 mph N/A   Overcast
5:35 PM 50.0 °F - 44.6 °F 82% 29.74 in 10.0 mi ENE 10.4 mph 20.7 mph N/A   Overcast
5:55 PM 50.0 °F - 44.6 °F 82% 29.74 in 10.0 mi ENE 12.7 mph 17.3 mph N/A   Overcast
6:15 PM 50.0 °F - 44.6 °F 82% 29.75 in 10.0 mi ENE 9.2 mph 20.7 mph N/A   Overcast
6:35 PM 51.8 °F - 44.6 °F 76% 29.76 in 10.0 mi NE 10.4 mph 16.1 mph N/A   Overcast
6:55 PM 51.8 °F - 44.6 °F 76% 29.76 in 10.0 mi NNE 12.7 mph 27.6 mph N/A   Overcast
7:15 PM 51.8 °F - 44.6 °F 76% 29.76 in 10.0 mi NE 12.7 mph 17.3 mph N/A   Overcast
7:35 PM 51.8 °F - 44.6 °F 76% 29.76 in 10.0 mi NNE 5.8 mph - N/A   Overcast
7:55 PM 51.8 °F - 44.6 °F 76% 29.75 in 10.0 mi NNE 6.9 mph 18.4 mph N/A   Overcast
8:15 PM 50.0 °F - 44.6 °F 82% 29.74 in 10.0 mi NNE 5.8 mph - 0.04 in   Overcast
8:35 PM 50.0 °F - 44.6 °F 82% 29.75 in 10.0 mi NE 11.5 mph 18.4 mph 0.05 in   Overcast
8:55 PM 50.0 °F - 44.6 °F 82% 29.75 in 10.0 mi NNE 6.9 mph 19.6 mph 0.05 in   Overcast
9:15 PM 50.0 °F - 44.6 °F 82% 29.76 in 10.0 mi NE 9.2 mph 20.7 mph N/A   Overcast
9:35 PM 50.0 °F - 44.6 °F 82% 29.76 in 10.0 mi NNE 12.7 mph 18.4 mph 0.01 in   Overcast
9:55 PM 50.0 °F - 44.6 °F 82% 29.74 in 10.0 mi NNE 9.2 mph - 0.02 in   Overcast
10:15 PM 50.0 °F - 44.6 °F 82% 29.74 in 10.0 mi NNE 13.8 mph 19.6 mph N/A   Overcast
10:35 PM 50.0 °F - 44.6 °F 82% 29.74 in 10.0 mi NNE 8.1 mph - N/A   Overcast
10:55 PM 51.8 °F - 44.6 °F 76% 29.74 in 10.0 mi NE 5.8 mph - N/A   Overcast
11:15 PM 51.8 °F - 44.6 °F 76% 29.72 in 10.0 mi NNE 5.8 mph - N/A   Overcast
11:35 PM 51.8 °F - 44.6 °F 76% 29.72 in 10.0 mi NNE 5.8 mph - N/A   Overcast
11:55 PM 51.8 °F - 44.6 °F 76% 29.72 in 10.0 mi NNE 4.6 mph - N/A   Overcast